Galveston, TX

2:04 PM CDT on March 26, 2017 (GMT -0500)
Scholes International At Galveston

Weather History for KGLS - December, 2013

Change the Weather History Date:

Saturday, December 21, 2013

  Actual Average Record
Temperature  
Mean Temperature 63 °F 56 °F  
Max Temperature 72 °F 63 °F 76 °F (1971)
Min Temperature 54 °F 50 °F 28 °F (1924)
Degree Days  
Heating Degree Days 2 9  
Month to date heating degree days 225 164  
Since 1 July heating degree days 403 267  
Cooling Degree Days 0 0  
Month to date cooling degree days 13 14  
Year to date cooling degree days 3324 3303  
Growing Degree Days 13 (Base 50)    
Moisture  
Dew Point 64 °F    
Average Humidity 97    
Maximum Humidity 100    
Minimum Humidity 93    
Precipitation  
Precipitation 0.42 in 0.10 in 2.85 in (1907)
Month to date precipitation 0.61 2.51  
Year to date precipitation 39.20 49.75  
Snow  
Snow 0.00 in - 0.00 in (2001)
Month to date snowfall 0.0  
Since 1 July snowfall 0.0  
Snow Depth 0.00 in    
Sea Level Pressure  
Sea Level Pressure 29.71 in    
Wind  
Wind Speed 8 mph (SSE)    
Max Wind Speed 23 mph    
Max Gust Speed 36 mph    
Visibility 3 miles    
Events Rain , Thunderstorm    
T = Trace of Precipitation, MM = Missing Value Source: NWS Daily Summary

Daily Weather History Graph

Daily Weather History Graph

Search for Another Location

Airport or City:

Trip Planner

Search our weather history database for the weather conditions in past years. The results will help you decide how hot, cold, wet, or windy it might be!

Date:

Astronomy

Dec. 21, 2013 Rise Set
Actual Time 7:09 AM CST 5:25 PM CST
Civil Twilight 6:43 AM CST 5:52 PM CST
Nautical Twilight 6:13 AM CST 6:21 PM CST
Astronomical Twilight 5:44 AM CST 6:50 PM CST
Moon 9:25 PM CST (12/21) 9:51 AM CST (12/21)
Length of Visible Light 11h 08m
Length of Day
10h 16m
Waning Gibbous, 84% of the Moon is Illuminated
Dec 21
Waning Gibbous
Dec 25
Last Quarter
Jan 1
New
Jan 7
First Quarter
Jan 15
Full

Hourly Weather History & Observations

Time (CST) Temp. Dew Point Humidity Pressure Visibility Wind Dir Wind Speed Gust Speed Precip Events Conditions
12:01 AM 66.2 °F 66.2 °F 100% 29.79 in 3.0 mi SE 11.5 mph - 0.00 in Rain Light Rain
12:23 AM 66.2 °F 66.2 °F 100% 29.78 in 2.0 mi SE 11.5 mph - 0.00 in   Overcast
12:39 AM 66.2 °F 66.2 °F 100% 29.77 in 3.0 mi SE 11.5 mph - 0.00 in   Overcast
12:52 AM 66.9 °F 66.9 °F 100% 29.75 in 3.0 mi SE 12.7 mph - 0.00 in   Overcast
1:14 AM 66.2 °F 66.2 °F 100% 29.73 in 4.0 mi SE 16.1 mph - N/A   Overcast
1:24 AM 66.2 °F 66.2 °F 100% 29.72 in 2.5 mi ESE 16.1 mph - N/A   Overcast
1:30 AM 66.2 °F 66.2 °F 100% 29.72 in 3.0 mi SE 18.4 mph - N/A   Overcast
1:37 AM 66.2 °F 66.2 °F 100% 29.72 in 2.5 mi SE 16.1 mph - N/A   Overcast
1:48 AM 66.2 °F 66.2 °F 100% 29.71 in 3.0 mi SE 18.4 mph - 0.01 in   Overcast
1:52 AM 66.9 °F 66.9 °F 100% 29.71 in 4.0 mi SE 16.1 mph - 0.01 in   Overcast
2:12 AM 66.2 °F 66.2 °F 100% 29.72 in 4.0 mi SE 11.5 mph - N/A   Overcast
2:52 AM 66.0 °F 66.0 °F 100% 29.71 in 4.0 mi SE 11.5 mph - N/A   Overcast
3:52 AM 66.0 °F 66.0 °F 100% 29.70 in 4.0 mi SE 6.9 mph - N/A   Overcast
4:26 AM 66.2 °F 66.2 °F 100% 29.70 in 5.0 mi SE 5.8 mph - N/A   Overcast
4:52 AM 66.9 °F 66.9 °F 100% 29.69 in 4.0 mi SE 4.6 mph - N/A   Overcast
5:48 AM 66.2 °F 66.2 °F 100% 29.70 in 4.0 mi SSE 3.5 mph - N/A   Overcast
5:52 AM 66.9 °F 66.9 °F 100% 29.69 in 2.5 mi SSE 3.5 mph - N/A   Overcast
6:52 AM 66.9 °F 66.9 °F 100% 29.70 in 2.5 mi SSE 5.8 mph - 0.00 in Rain Light Rain
7:31 AM 69.8 °F 69.8 °F 100% 29.70 in 2.5 mi South 9.2 mph - 0.00 in   Overcast
7:52 AM 70.0 °F 69.1 °F 97% 29.70 in 2.5 mi South 10.4 mph - 0.01 in Rain Light Rain
8:28 AM 69.8 °F 69.8 °F 100% 29.70 in 2.5 mi South 12.7 mph - 0.01 in Rain Light Rain
8:52 AM 71.1 °F 70.0 °F 96% 29.70 in 3.0 mi SSE 12.7 mph - 0.03 in Rain Light Rain
9:52 AM 69.1 °F 69.1 °F 100% 29.70 in 3.0 mi South 13.8 mph - 0.06 in Rain Light Rain
10:00 AM 69.8 °F 69.8 °F 100% 29.69 in 2.5 mi South 16.1 mph - 0.01 in Rain Light Rain
10:52 AM 68.0 °F 68.0 °F 100% 29.68 in 2.5 mi South 15.0 mph - 0.02 in Rain Light Rain
11:34 AM 66.2 °F 66.2 °F 100% 29.66 in 1.5 mi South 17.3 mph - 0.02 in Rain Light Rain
11:52 AM 66.9 °F 66.9 °F 100% 29.65 in 1.5 mi South 16.1 mph - 0.02 in Rain Light Rain
11:59 AM 66.2 °F 66.2 °F 100% 29.64 in 2.0 mi South 17.3 mph - 0.00 in   Overcast
12:17 PM 68.0 °F 68.0 °F 100% 29.63 in 2.0 mi South 17.3 mph - 0.00 in   Overcast
12:52 PM 68.0 °F 68.0 °F 100% 29.62 in 2.0 mi South 17.3 mph - 0.00 in   Overcast
12:54 PM 68.0 °F 68.0 °F 100% 29.62 in 3.0 mi South 18.4 mph - N/A   Overcast
1:04 PM 69.8 °F 69.8 °F 100% 29.62 in 4.0 mi South 20.7 mph - 0.01 in   Overcast
1:52 PM 68.0 °F 66.9 °F 96% 29.61 in 3.0 mi South 20.7 mph - 0.01 in   Overcast
2:07 PM 69.8 °F 69.8 °F 100% 29.61 in 5.0 mi South 18.4 mph 27.6 mph 0.00 in Rain Light Rain
2:13 PM 69.8 °F 69.8 °F 100% 29.60 in 3.0 mi South 19.6 mph - 0.00 in Rain Light Rain
2:52 PM 69.1 °F 69.1 °F 100% 29.62 in 3.0 mi SSW 13.8 mph - 0.08 in Rain Light Rain
3:00 PM 69.8 °F 69.8 °F 100% 29.62 in 2.0 mi SSW 12.7 mph - 0.02 in Rain Light Rain
3:17 PM 69.8 °F 69.8 °F 100% 29.61 in 1.8 mi SW 15.0 mph 21.9 mph 0.13 in Rain Rain
3:21 PM 69.8 °F 69.8 °F 100% 29.61 in 2.0 mi SW 15.0 mph - 0.15 in Rain , Thunderstorm Rain
3:34 PM 64.4 °F 64.4 °F 100% 29.64 in 3.0 mi WNW 11.5 mph 35.7 mph 0.17 in Rain , Thunderstorm Thunderstorms and Rain
3:37 PM 62.6 °F 62.6 °F 100% 29.65 in 4.0 mi WNW 11.5 mph 35.7 mph 0.18 in Rain , Thunderstorm Thunderstorms and Rain
3:48 PM 62.6 °F 62.6 °F 100% 29.64 in 10.0 mi NW 11.5 mph - 0.18 in Rain , Thunderstorm Light Rain
3:52 PM 63.0 °F 62.1 °F 97% 29.65 in 10.0 mi NW 11.5 mph - 0.18 in Thunderstorm Overcast
4:02 PM 62.6 °F 60.8 °F 94% 29.65 in 10.0 mi NW 9.2 mph - N/A   Overcast
4:52 PM 63.0 °F 61.0 °F 93% 29.67 in 10.0 mi North 3.5 mph - 0.00 in   Overcast
4:59 PM 62.6 °F 60.8 °F 94% 29.68 in 10.0 mi North 3.5 mph - N/A   Overcast
5:52 PM 62.1 °F 60.1 °F 93% 29.70 in 10.0 mi Calm Calm - N/A   Partly Cloudy
6:20 PM 60.8 °F 60.8 °F 100% 29.71 in 2.5 mi Calm Calm - N/A   Clear
6:52 PM 59.0 °F 59.0 °F 100% 29.73 in 2.5 mi Calm Calm - N/A   Clear
7:02 PM 59.0 °F 59.0 °F 100% 29.73 in 3.0 mi Calm Calm - N/A   Clear
7:18 PM 59.0 °F 59.0 °F 100% 29.73 in 2.5 mi Calm Calm - N/A   Clear
7:28 PM 59.0 °F 59.0 °F 100% 29.75 in 3.0 mi Calm Calm - N/A   Clear
7:36 PM 59.0 °F 59.0 °F 100% 29.75 in 2.0 mi Calm Calm - N/A   Clear
7:52 PM 57.0 °F 57.0 °F 100% 29.75 in 1.8 mi SSE 3.5 mph - N/A   Clear
8:52 PM 57.9 °F 57.9 °F 100% 29.78 in 1.8 mi Calm Calm - N/A   Clear
9:00 PM 57.2 °F 57.2 °F 100% 29.79 in 2.0 mi Calm Calm - N/A   Partly Cloudy
9:17 PM 57.2 °F 57.2 °F 100% 29.80 in 1.8 mi Calm Calm - N/A   Partly Cloudy
9:35 PM 57.2 °F 57.2 °F 100% 29.80 in 2.0 mi Calm Calm - N/A   Clear
9:52 PM 57.9 °F 57.9 °F 100% 29.81 in 2.5 mi Calm Calm - N/A   Clear
10:07 PM 57.2 °F 57.2 °F 100% 29.81 in 0.8 mi Calm Calm - N/A   Clear
10:21 PM 57.2 °F 57.2 °F 100% 29.81 in 2.0 mi Calm Calm - N/A   Clear
10:29 PM 55.4 °F 55.4 °F 100% 29.81 in 3.0 mi SE 3.5 mph - N/A   Clear
10:37 PM 55.4 °F 55.4 °F 100% 29.81 in 2.5 mi East 4.6 mph - N/A   Clear
10:52 PM 55.9 °F 55.9 °F 100% 29.82 in 2.5 mi Calm Calm - N/A   Mist
11:08 PM 55.4 °F 55.4 °F 100% 29.82 in 1.8 mi Calm Calm - N/A   Mist
11:52 PM 55.0 °F 55.0 °F 100% 29.82 in 1.0 mi Calm Calm - N/A   Clear